Location: Montamat
(43.4852°N, 0.8444°E)
Time: 10:08:37
(UTC+00:00)

Cosmos 2237 - Pass Details

Date: 14 May 2026
Orbit: 845 x 858 km, 70.8° (Epoch: 5 June)

Event Time Altitude Azimuth Distance (km) Brightness Sun altitude
Rises 20:50:58 0° 332° (NNW) 3,440 8.9 -15.1°
Reaches altitude 10° 20:53:26 10° 330° (NNW) 2,500 7.9 -15.4°
Maximum altitude 20:59:08 68° 249° (WSW) 921 4.4 -16.1°
Enters shadow 21:03:03 21° 170° (S) 1,842 5.5 -16.5°
